Simultaneous Nadir Overpasses (SNOs) Predictions

Prediction of SNOs between METOP-C and LANDSAT-8 Satellite Orbit:

Table of predicted SNOs for the next 14.0 days since TLE Epoch: 6/6/2020
Index Date (METOP-C) Time (METOP-C) Lat,Lon (METOP-C) SZA (METOP-C ) Date (LANDSAT-8) Time (LANDSAT-8) Lat,Lon (LANDSAT-8) SZA (LANDSAT-8 ) Distance(km) Time Diff (sec)
1 06/07/2020 03:35:21 -81.11, -14.20 119.51 06/07/2020 03:36:08 -81.12, -14.10 119.47 1.83 47
2 06/07/2020 04:25:58 81.15, 154.21 60.63 06/07/2020 04:25:33 81.15, 154.03 60.60 3.11 25
3 06/09/2020 23:09:43 -81.12, 52.43 119.73 06/09/2020 23:10:26 -81.12, 52.38 119.72 0.83 43
4 06/10/2020 00:00:22 81.13,-139.94 60.31 06/09/2020 23:59:52 81.13,-139.88 60.30 1.20 30
5 06/12/2020 18:44:05 -81.12, 118.66 119.95 06/12/2020 18:44:44 -81.11, 118.64 119.94 0.57 39
6 06/12/2020 19:34:43 81.14, -73.36 60.14 06/12/2020 19:34:09 81.14, -73.27 60.13 1.51 34
7 06/15/2020 14:18:28 -81.11,-175.12 120.12 06/15/2020 14:19:03 -81.11,-174.95 120.09 2.92 35
8 06/15/2020 15:09:05 81.14, -6.79 60.01 06/15/2020 15:08:28 81.14, -6.89 59.98 1.85 37
9 06/18/2020 09:52:50 -81.11,-108.55 120.19 06/18/2020 09:53:22 -81.12,-108.40 120.16 2.63 32




NCC Satellite Simultaneous Nadir Overpasses (SNOs) Prediction Service
